Date,TemperatureHighF,TemperatureAvgF,TemperatureLowF,DewpointHighF,DewpointAvgF,DewpointLowF,HumidityHigh,HumidityAvg,HumidityLow,PressureMaxIn,PressureMinIn,WindSpeedMaxMPH,WindSpeedAvgMPH,GustSpeedMaxMPH,PrecipitationSumIn
2014-3-1,36.5,24.6,10.1,23.8,10.6,-0.4,72,56,35,30.42,30.07,5,1,8,0.00
2014-3-2,40.8,34.6,30.7,25.9,22.5,17.6,69,61,51,30.06,29.93,3,1,4,0.00
2014-3-3,30.5,21.9,14.9,17.9,5.3,-2.4,60,49,37,30.27,29.96,4,2,9,0.00
2014-3-4,31.0,21.8,8.8,8.3,1.8,-2.6,65,43,29,30.36,30.22,4,1,7,0.00
2014-3-5,27.7,24.9,18.7,21.8,15.7,6.8,83,69,42,30.47,30.21,4,2,7,0.00
2014-3-6,29.0,20.5,10.6,10.4,1.6,-6.5,70,46,24,30.61,30.47,3,1,7,0.00
2014-3-7,37.6,27.6,11.6,27.6,17.7,-99.9,86,68,49,30.48,29.92,5,-5,7,0.00
2014-3-8,54.3,40.2,25.4,28.8,26.4,20.6,89,61,35,29.92,29.65,6,2,9,0.00
2014-3-9,41.4,34.8,28.9,19.6,14.1,8.4,59,43,27,29.91,29.83,5,2,11,0.00
2014-3-10,44.2,36.1,29.2,30.1,23.5,13.3,86,61,45,29.86,29.61,4,1,7,0.00
2014-3-11,58.1,45.2,35.2,36.5,32.3,28.5,92,64,34,29.68,29.48,6,2,11,0.00
2014-3-12,50.4,42.2,38.3,40.0,35.3,30.6,94,77,54,29.68,29.00,4,1,8,0.34
2014-3-13,38.0,23.2,17.5,36.4,15.3,2.7,94,73,49,29.92,28.95,7,4,17,0.06
2014-3-14,39.2,27.5,14.6,27.9,10.9,1.2,70,50,30,30.15,29.89,5,3,11,0.00
2014-3-15,56.3,44.7,36.8,39.5,32.3,26.5,87,63,41,29.89,29.62,8,3,11,0.02
2014-3-16,39.8,32.0,26.0,25.1,10.6,2.2,58,42,28,30.17,29.85,7,4,10,0.00
2014-3-17,30.5,23.6,16.5,5.9,-0.5,-4.6,43,35,24,30.17,30.02,4,2,7,0.00
2014-3-18,38.0,28.2,18.3,20.7,11.6,1.8,71,50,40,30.33,30.14,5,2,8,0.00
2014-3-19,42.2,34.2,24.4,31.9,25.5,19.1,84,71,57,30.37,29.96,7,3,10,0.00
2014-3-20,51.2,42.6,37.2,42.5,34.5,26.9,94,75,45,29.98,29.58,7,3,11,0.27
2014-3-21,44.1,38.7,32.8,26.9,24.0,22.3,65,56,43,30.01,29.71,7,4,14,0.00
2014-3-22,56.0,40.3,27.5,41.7,26.7,20.5,78,60,36,30.03,29.62,10,3,17,0.00
2014-3-23,44.2,36.3,26.2,25.8,17.7,4.8,72,49,30,30.04,29.87,5,3,9,0.00
2014-3-24,32.3,25.0,16.9,7.6,1.3,-1.9,50,36,23,30.15,30.02,6,3,11,0.00
2014-3-25,38.9,30.4,18.9,16.8,10.7,7.4,68,45,29,30.13,29.89,5,2,8,0.00
2014-3-26,35.0,31.2,24.8,20.2,11.4,1.0,64,44,29,29.99,29.56,11,6,18,0.00
2014-3-27,45.9,32.7,20.8,17.6,4.5,0.3,47,31,18,30.30,30.00,6,3,14,0.00
2014-3-28,59.4,46.1,35.3,48.6,36.7,17.9,90,71,48,30.24,29.92,7,3,11,0.03
2014-3-29,52.5,46.2,40.7,48.0,40.9,37.2,94,82,62,30.21,29.95,8,4,16,0.51
2014-3-30,42.6,40.3,36.4,41.3,38.6,34.3,95,94,92,29.95,29.60,7,4,13,1.34
2014-3-31,41.5,37.3,35.0,36.0,33.7,30.5,94,87,72,29.97,29.66,5,3,10,0.44